{"data":{"norad_id":68109,"epoch":"2026-05-24T20:21:52.283520Z","epoch_age_seconds":87854,"freshness":"FRESH","line1":"1 68109U 26044J   26144.84852180  .00016367  00000+0  50800-3 0  9991","line2":"2 68109  97.2841 105.4661 0001408  82.6797 277.4606 15.33456157 13255","mean_motion":15.33456157,"eccentricity":0.0001408,"inclination_deg":97.2841,"raan_deg":105.4661,"arg_perigee_deg":82.6797,"mean_anomaly_deg":277.4606,"bstar":0.000508,"rev_number":1325,"period_min":93.905521421438,"perigee_km":464.54639380233,"apogee_km":466.4735647917,"semimajor_km":6843.646979297,"source":"CELESTRAK","updated_at":"2026-05-25T13:38:21.842415Z"}}